Tracking 19854 objects as of 22-Sep-2019
HD Live streaming from Space Station
objects crossing your sky now

SCOUT G-1 DEB

Track SCOUT G-1 DEB now!
10-day predictions


NORAD ID: 18426
Int'l Code: 1986-088C
Perigee: 945.8 km
Apogee: 1,047.6 km
Inclination: 89.1 °
Period: 104.9 minutes
Semi major axis: 7367 km
RCS: 0.0396 m2 (small)
Launch date: November 14, 1986
Source: United States (US)
Launch site: AIR FORCE WESTERN TEST RANGE (AFWTR)

Note: This is SATELLITE DEBRIS
aabbcc
Your satellite tracking list
Your tracking list is empty




NASA's NSSDC Master Catalog

Two Line Element Set (TLE):
1 18426U 86088C   19265.04978358  .00000064  00000-0  55359-4 0  9999
2 18426  89.1243 117.9342 0069115 345.2034 168.7659 13.72798573643580
Source of the keplerian elements: AFSPC